TimeEST,TemperatureF,Dew PointF,Humidity,Sea Level PressureIn,VisibilityMPH,Wind Direction,Wind SpeedMPH,Gust SpeedMPH,PrecipitationIn,Events,Conditions,WindDirDegrees,DateUTC
12:54 AM,48.0,30.9,52,30.14,10.0,SSW,6.9,-,N/A,,Clear,210,2013-12-29 05:54:00
1:54 AM,48.0,30.9,52,30.14,10.0,SSW,8.1,-,N/A,,Clear,210,2013-12-29 06:54:00
2:54 AM,48.9,30.9,50,30.13,10.0,SSW,6.9,-,N/A,,Overcast,210,2013-12-29 07:54:00
3:54 AM,51.1,30.0,44,30.11,10.0,SSW,10.4,-,N/A,,Overcast,210,2013-12-29 08:54:00
4:54 AM,46.9,37.9,71,30.09,10.0,SW,3.5,-,0.00,Rain,Light Rain,230,2013-12-29 09:54:00
5:54 AM,46.0,39.9,79,30.08,10.0,Calm,Calm,-,0.01,Rain,Light Rain,0,2013-12-29 10:54:00
6:54 AM,45.0,42.1,90,30.05,10.0,ENE,4.6,-,0.02,Rain,Light Rain,70,2013-12-29 11:54:00
7:54 AM,45.0,42.1,90,30.00,10.0,ESE,5.8,-,0.00,,Overcast,110,2013-12-29 12:54:00
8:54 AM,46.9,44.1,90,29.98,10.0,East,3.5,-,0.00,Rain,Light Rain,100,2013-12-29 13:54:00
9:54 AM,50.0,46.0,86,29.89,10.0,ESE,13.8,-,0.00,,Overcast,120,2013-12-29 14:54:00
10:54 AM,50.0,46.9,89,29.83,4.0,ESE,16.1,-,0.01,Rain,Rain,110,2013-12-29 15:54:00
11:17 AM,51.8,48.2,88,29.79,2.5,ESE,15.0,-,N/A,Rain,Rain,120,2013-12-29 16:17:00
11:26 AM,51.8,48.2,88,29.76,2.0,ESE,15.0,-,N/A,Rain,Rain,120,2013-12-29 16:26:00
11:47 AM,53.6,50.0,88,29.72,3.0,ESE,15.0,24.2,N/A,Rain,Rain,120,2013-12-29 16:47:00
11:54 AM,53.1,51.1,93,29.72,2.0,SE,16.1,-,N/A,Rain,Heavy Rain,130,2013-12-29 16:54:00
12:21 PM,55.4,53.6,94,29.66,1.5,SE,12.7,20.7,0.13,Rain,Heavy Rain,140,2013-12-29 17:21:00
12:31 PM,57.2,53.6,88,29.65,2.0,SSE,15.0,20.7,0.18,Rain,Heavy Rain,150,2013-12-29 17:31:00
12:34 PM,57.2,53.6,88,29.64,1.8,SSE,13.8,20.7,0.20,Rain,Heavy Rain,150,2013-12-29 17:34:00
12:38 PM,57.2,55.4,94,29.63,2.0,SE,18.4,25.3,0.21,Rain,Heavy Rain,140,2013-12-29 17:38:00
12:48 PM,59.0,55.4,88,29.62,3.0,SSE,19.6,28.8,0.23,Rain,Rain,160,2013-12-29 17:48:00
12:54 PM,59.0,55.9,90,29.62,3.0,South,16.1,28.8,0.25,Rain,Rain,170,2013-12-29 17:54:00
1:34 PM,62.6,59.0,88,29.57,2.0,South,21.9,34.5,0.11,Rain,Heavy Rain,180,2013-12-29 18:34:00
1:45 PM,62.6,59.0,88,29.56,3.0,South,19.6,38.0,0.13,Rain,Rain,180,2013-12-29 18:45:00
1:48 PM,62.6,59.0,88,29.56,1.8,South,24.2,38.0,0.17,Rain,Heavy Rain,180,2013-12-29 18:48:00
1:54 PM,63.0,60.1,90,29.55,1.2,South,18.4,35.7,0.20,Rain,Heavy Rain,170,2013-12-29 18:54:00
2:00 PM,62.6,59.0,88,29.54,3.0,South,20.7,32.2,0.00,Rain,Light Rain,180,2013-12-29 19:00:00
2:54 PM,64.0,60.1,87,29.52,2.5,South,23.0,41.4,0.00,Rain,Rain,190,2013-12-29 19:54:00
3:12 PM,64.4,60.8,88,29.53,1.5,SSW,21.9,29.9,0.05,Rain,Rain,210,2013-12-29 20:12:00
3:23 PM,60.8,57.2,88,29.55,1.8,SW,25.3,40.3,0.08,Rain,Light Rain,230,2013-12-29 20:23:00
3:28 PM,60.8,57.2,88,29.54,3.0,SW,15.0,35.7,0.08,Rain,Light Rain,230,2013-12-29 20:28:00
3:38 PM,60.8,57.2,88,29.54,2.0,SW,10.4,23.0,0.12,Rain,Light Rain,220,2013-12-29 20:38:00
3:47 PM,60.8,55.4,82,29.54,10.0,SW,10.4,-,0.12,,Overcast,230,2013-12-29 20:47:00
3:54 PM,59.0,55.9,90,29.55,10.0,WSW,16.1,23.0,0.12,,Overcast,240,2013-12-29 20:54:00
4:32 PM,55.4,51.8,88,29.55,10.0,WSW,12.7,25.3,N/A,,Mostly Cloudy,250,2013-12-29 21:32:00
4:54 PM,54.0,48.9,83,29.58,10.0,SW,17.3,23.0,N/A,,Scattered Clouds,230,2013-12-29 21:54:00
5:33 PM,51.8,46.4,82,29.61,10.0,WSW,15.0,-,N/A,,Mostly Cloudy,250,2013-12-29 22:33:00
5:54 PM,51.1,46.9,86,29.64,10.0,WSW,18.4,25.3,N/A,,Overcast,250,2013-12-29 22:54:00
6:54 PM,51.1,46.0,83,29.70,10.0,West,13.8,25.3,N/A,,Overcast,280,2013-12-29 23:54:00
7:54 PM,50.0,45.0,83,29.73,10.0,West,13.8,-,N/A,,Mostly Cloudy,260,2013-12-30 00:54:00
8:05 PM,48.2,44.6,87,29.73,10.0,West,11.5,-,N/A,,Scattered Clouds,260,2013-12-30 01:05:00
8:54 PM,48.9,45.0,86,29.75,10.0,West,11.5,-,N/A,,Partly Cloudy,260,2013-12-30 01:54:00
9:54 PM,50.0,43.0,77,29.78,10.0,West,9.2,-,N/A,,Partly Cloudy,270,2013-12-30 02:54:00
10:21 PM,50.0,42.8,76,29.81,10.0,WNW,11.5,-,N/A,,Overcast,290,2013-12-30 03:21:00
10:46 PM,50.0,41.0,71,29.82,10.0,WNW,9.2,-,N/A,,Scattered Clouds,300,2013-12-30 03:46:00
10:54 PM,48.9,41.0,74,29.83,10.0,WNW,6.9,-,N/A,,Partly Cloudy,290,2013-12-30 03:54:00
11:54 PM,46.0,39.9,79,29.85,10.0,WSW,4.6,-,N/A,,Clear,250,2013-12-30 04:54:00